Kinston Regional Jetport At Stallings Field
KISO : now visible

Airfield :











YOU CAN JOIN US ON...

 
LOGIN :

Register | Disclaimer

   EN    FR    IT 

 









Legend :    VFR   Marginal VFR   IFR   Intensive IFR   Very Intensive IFR
Visi :
Ceiling :
>= 8 km
>= 3000ft
5 to 8 km
1000 to 3000 ft
1500m to 5 km
500 to 1000 ft
800 to 1500m
200 to 500 ft
< 800m
< 200 ft
Symbols :   Thunderstorms  Fog  Heavy snow  Heavy precipitations  Wind > 20 kt






- Airport Elevation : 93 ft


KISO - Kinston Regional Jetport At Stallings Field

CURRENT METAR :
  • 202156Z 16005KT 10SM SCT065 SCT090 23/22 A2989

EXPIRED METARs :
  • 202056Z 15005KT 10SM SCT012 BKN050 OVC090 23/22 A2990
  • 201956Z 24003KT 10SM SCT028 SCT055 BKN110 23/23 A2989

TAF KISO
Valid from the 20 at 20:00 until the 21 at 18:00 UTC


202000Z 2020/2118 24003KT P6SM VCTS SCT015 BKN050CB
TEMPO 2020/2022 4SM +TSRA BKN015CB
FM202200 18010G18KT P6SM SCT025 BKN050
FM210500 16009G15KT P6SM VCSH OVC025
FM210800 00000KT 5SM +SHRA OVC007 WS020/21040KT
FM211200 30011G19KT P6SM VCSH OVC007
FM211500 27009G17KT P6SM BKN025 AMD LTD TO CLD VIS AND WIND
KZDC FIR / North America



MET'MAP, your aeronautical weather chart ! - Copyright ORBIFLY December 2007 - Disclaimer

ORBIFLY MET'MAP TEAM :

Programming & Development : Alexandra Zaïnal
Concept & original design : Baudouin d'Aumeries
Assistance for programming : Marc-Olivier Méhu
Technical & hardware support : Manuel Goepfert

Contact : metmap@orbifly.com




SOURCES & CREDITS :

   NOAA       Earth
Advisory